TimeMST,TemperatureF,Dew PointF,Humidity,Sea Level PressureIn,VisibilityMPH,Wind Direction,Wind SpeedMPH,Gust SpeedMPH,PrecipitationIn,Events,Conditions,WindDirDegrees,DateUTC
12:55 AM,56.5,32.7,41,30.03,10.0,SE,6.9,-,N/A,,Clear,140,2012-10-14 07:55:00
1:55 AM,55.8,32.7,42,30.02,10.0,SE,5.8,-,N/A,,Clear,130,2012-10-14 08:55:00
2:55 AM,55.6,33.1,43,30.01,10.0,SE,10.4,-,N/A,,Clear,130,2012-10-14 09:55:00
3:55 AM,54.9,33.1,44,30.00,10.0,SSE,3.5,-,N/A,,Clear,160,2012-10-14 10:55:00
4:55 AM,51.1,32.5,49,30.02,10.0,South,4.6,-,N/A,,Clear,190,2012-10-14 11:55:00
5:55 AM,52.2,33.1,48,30.03,10.0,SSE,4.6,-,N/A,,Clear,160,2012-10-14 12:55:00
6:55 AM,53.6,33.6,47,30.05,10.0,SSE,5.8,-,N/A,,Clear,160,2012-10-14 13:55:00
7:55 AM,60.1,34.0,38,30.05,10.0,SSE,8.1,-,N/A,,Clear,160,2012-10-14 14:55:00
8:55 AM,68.4,35.2,30,30.03,10.0,South,4.6,-,N/A,,Clear,170,2012-10-14 15:55:00
9:55 AM,77.7,34.2,21,30.00,10.0,East,5.8,-,N/A,,Clear,100,2012-10-14 16:55:00
10:55 AM,82.8,31.1,15,29.98,10.0,Calm,Calm,-,N/A,,Clear,0,2012-10-14 17:55:00
11:55 AM,85.1,29.5,13,29.95,10.0,SE,18.4,25.3,N/A,,Clear,130,2012-10-14 18:55:00
12:55 PM,86.4,26.1,11,29.91,10.0,ESE,12.7,19.6,N/A,,Clear,120,2012-10-14 19:55:00
1:55 PM,87.8,23.2,9,29.89,10.0,SE,9.2,-,N/A,,Clear,130,2012-10-14 20:55:00
2:55 PM,87.3,27.1,11,29.88,10.0,East,8.1,-,N/A,,Clear,100,2012-10-14 21:55:00
3:55 PM,89.1,26.2,10,29.86,10.0,East,6.9,-,N/A,,Clear,90,2012-10-14 22:55:00
4:55 PM,87.8,25.3,10,29.86,10.0,Variable,3.5,-,N/A,,Clear,0,2012-10-14 23:55:00
5:55 PM,84.4,25.0,11,29.88,10.0,NNE,10.4,-,N/A,,Clear,30,2012-10-15 00:55:00
6:55 PM,81.0,26.4,14,29.89,10.0,NE,8.1,-,N/A,,Clear,50,2012-10-15 01:55:00
7:55 PM,75.6,28.2,17,29.90,10.0,ENE,8.1,-,N/A,,Clear,70,2012-10-15 02:55:00
8:55 PM,69.3,27.0,21,29.91,10.0,South,6.9,-,N/A,,Clear,170,2012-10-15 03:55:00
9:55 PM,69.1,27.5,21,29.90,10.0,South,4.6,-,N/A,,Clear,180,2012-10-15 04:55:00
10:55 PM,66.4,26.8,23,29.89,10.0,South,4.6,-,N/A,,Clear,170,2012-10-15 05:55:00
11:55 PM,66.0,26.4,22,29.88,10.0,SSE,6.9,-,N/A,,Clear,150,2012-10-15 06:55:00